Portada
METAR-TAF:

METAR-TAF

Aeropuertos :

Base aérea

Tafraoui, Argelia

latitud: 35-32-33N, longitud: 000-31-56W, altitud: 112 m

Observación

El informe se hizo hace 28 minutos, a las 23:00 UTC
Viento 16 kt del oeste-suroeste
Temperatura 26°C
Humedad 65%
Presión 1016 hPa
Visibilidad: 8000 m
Nubes dispersas a una altura de 2600 ft

METAR: DAOL 182300Z 24016KT 8000 SCT026 26/19 Q1016

Hora: 00:28 (23:28 UTC)


TAF: falta

Observaciones y pronósticos meteorológicos de más de 4000 aeropuertos (mensajes METAR y TAF).

Los puntos amarillos y rojos representan las estaciones disponibles.

Ponga el ratón en el punto deseado para ver el nombre de la estación.

Haga clic para ver las observaciones y los pronósticos meteorológicos.

Para cambiar el mapa : haga clic en los botones verdes con una cruz de color negro para hacer un zoom, en el botón verde con un guión para alejar o en las flechas verdes para mapas adyacentes.


METAR-TAF: